Regional Weather Roundup
Issued by NWS

Home | Current Version | Previous Version | Graphics & Text | Print | Product List | Glossary On
Versions: 1 2 3 4 5 6 7 8 9 10 11 12 13 14 15 16 17 18 19 20 21 22 23 24 25 26 27 28 29 30 31 32 33 34 35 36 37 38 39 40 41 42 43 44 45 46 47 48 49 50
000
ASUS43 KLMK 230302
RWRKY
KENTUCKY REGIONAL WEATHER ROUNDUP
NATIONAL WEATHER SERVICE LOUISVILLE KY
1100 PM EDT SAT APR 22 2017

NOTE "FAIR" INDICATES FEW OR NO CLOUDS BELOW 12,000 FEET
WITH NO SIGNIFICANT WEATHER AND/OR OBSTRUCTIONS TO VISIBILITY.

KYZ001>023-026-027-061>063-070>075-230400-
WESTERN AND SOUTH CENTRAL KENTUCKY

CITY           SKY/WX    TMP DP  RH WIND       PRES   REMARKS
PADUCAH        CLOUDY    53  44  71 NE12      30.00R
HENDERSON      CLOUDY    53  42  66 NE10      30.02
OWENSBORO      PTCLDY    51  42  71 NE7       30.02R
HOPKINSVILLE   CLOUDY    52  48  86 NE15      29.95R
BOWLING GREEN  CLOUDY    53  49  86 NE12      29.97R
GLASGOW        NOT AVBL
$$

KYZ024-025-028>034-038-045-046-053-230400-
NORTH CENTRAL KENTUCKY

CITY           SKY/WX    TMP DP  RH WIND       PRES   REMARKS
LOUISVILLE/SDF PTCLDY    51  41  68 N6        30.03R
LOUISVILLE/LOU CLEAR     50  40  68 N5        30.03S
FORT KNOX      CLOUDY    49  41  73 NE8       29.99S
$$

KYZ035>037-039>044-047>052-055>060-089>105-230400-
NORTHEAST KENTUCKY

CITY           SKY/WX    TMP DP  RH WIND       PRES   REMARKS
LEXINGTON      MOCLDY    47  41  80 NE8       30.02R
COVINGTON      CLEAR     49  35  58 NE17      30.06R
FRANKFORT      PTCLDY    49  39  68 NE5       30.01R
$$

KYZ054-064>069-076>088-106>120-230400-
SOUTHEAST KENTUCKY

CITY           SKY/WX    TMP DP  RH WIND       PRES   REMARKS
JACKSON        CLOUDY    47  46  97 VRB3      29.99R FOG
LONDON         CLOUDY    49  46  90 NE6       29.96R
SOMERSET       NOT AVBL
MIDDLESBORO    CLOUDY    52  51  99 CALM      29.94S
MONTICELLO     CLOUDY    50  48  93 NW5       29.98R
$$





USA.gov is the U.S. government's official web portal to all federal, state and local government web resources and services.